Current Weather Conditions: station 42390

sailwx.info

Air temperature 29.4° C
Dewpoint 22.8° C

Last reported at 2014-Jul-30 01:30 UTC.
Time now 2014-Jul-30 03:04 UTC

Location: N 26°06' W 094°54'.
View on Google Maps.

See reports from other nearby stations

  
Tides and Currents Weather Stations Pressure Air Temp Water Temp Dewpoint Dewpoint Depression Visibility Wind Speed Wind Dir Waves Ship Positions
date/time (UTC)wind fromknots sea level pressurealtimeterstation pressurevisibilityair tempwater tempwave heightnotes
2014-Jul-30 01:30 29.4
2014-Jul-29 23:30 29.4
2014-Jul-29 22:30 29.4
2014-Jul-29 19:30 300 29.4
2014-Jul-29 18:30 140 33 29.4
2014-Jul-29 17:30 30.6
2014-Jul-29 16:30 30.6
2014-Jul-29 15:30 240 3 30.6
2014-Jul-29 13:30 210 3 30.6
2014-Jul-29 12:30 250 3 30.0
2014-Jul-29 11:30 240 3 29.4
2014-Jul-29 10:30 210 5 32.2
2014-Jul-29 09:30 200 7 32.2
2014-Jul-29 08:30 190 9 29.4
2014-Jul-29 07:30 180 7 28.3
2014-Jul-29 05:30 160 3 28.9
2014-Jul-29 04:30 140 3 28.9
2014-Jul-28 23:30 150 5 28.9
2014-Jul-28 22:30 150 5 28.9
2014-Jul-28 20:30 150 7 28.9
2014-Jul-28 17:30 170 5 28.9
2014-Jul-28 15:30 150 7 28.9
2014-Jul-28 13:30 160 5 28.9
2014-Jul-28 12:30 160 5 28.9
2014-Jul-28 11:30 170 7 28.9
2014-Jul-28 10:30 170 7 28.9
2014-Jul-28 09:30 170 9 28.9
2014-Jul-28 07:30 160 11 28.9
2014-Jul-28 05:30 150 13 28.9
2014-Jul-28 04:30 140 11 29.4
2014-Jul-28 03:30 140 11 29.4